GW0796 Weather Reports


time (UTC)temp
C
wind
direction
speed
KPH
gust
KPH
rain 1hr
cm
rain 24hr
cm
rain mn
cm
humidity
%
barometer
mb
20260507001558 10 310 4.8 16.1 0.00 0.00 0.00 40 1013.6
20260507000058 10 299 8.0 14.5 0.00 0.00 0.00 39 1013.7
20260506234603 10 311 4.8 11.3 0.00 0.00 0.00 40 1013.8
20260506233104 10 307 9.7 14.5 0.00 0.00 0.00 40 1013.8
20260506231609 10 304 6.4 12.9 0.00 0.00 0.00 39 1013.9
20260506230058 10 282 8.0 17.7 0.00 0.00 0.00 39 1014.0
20260506224608 10 302 6.4 17.7 0.00 0.00 0.00 42 1014.0
20260506223057 10 295 9.7 16.1 0.00 0.00 0.00 39 1014.3
20260506221601 9 305 6.4 19.3 0.00 0.00 0.00 40 1014.4
20260506214610 10 311 8.0 16.1 0.00 0.00 0.00 40 1014.7
20260506213100 9 286 11.3 19.3 0.00 0.00 0.00 40 1014.9
20260506211557 9 320 8.0 19.3 0.00 0.00 0.00 39 1015.0
20260506210100 10 293 9.7 24.1 0.00 0.00 0.00 42 1015.1
20260506204617 10 292 12.9 25.7 0.00 0.00 0.00 41 1015.3
20260506203057 10 302 11.3 22.5 0.00 0.00 0.00 41 1015.4
20260506201600 9 285 11.3 20.9 0.00 0.00 0.00 40 1015.6
20260506200058 10 285 11.3 25.7 0.00 0.00 0.00 43 1015.6
20260506194605 8 293 9.7 19.3 0.00 0.00 0.00 46 1015.7
20260506193101 8 309 9.7 19.3 0.00 0.00 0.00 44 1016.0
20260506191556 8 302 12.9 20.9 0.00 0.00 0.00 43 1016.0
20260506190100 8 309 9.7 22.5 0.00 0.00 0.00 44 1016.1
20260506184557 7 335 16.1 30.6 0.00 0.00 0.00 44 1016.2
20260506183109 8 314 8.0 17.7 0.00 0.00 0.00 44 1016.2
20260506181602 7 341 9.7 27.4 0.00 0.00 0.00 47 1016.4
20260506174559 7 278 11.3 24.1 0.00 0.00 0.00 47 1016.7
20260506173100 6 331 12.9 25.7 0.00 0.00 0.00 47 1016.8
20260506171605 6 311 17.7 29.0 0.00 0.00 0.00 47 1016.8
20260506170107 6 297 9.7 27.4 0.00 0.00 0.00 48 1017.0
20260506164603 6 295 11.3 25.7 0.00 0.00 0.00 49 1016.8
20260506163106 6 304 12.9 27.4 0.00 0.00 0.00 49 1017.1
20260506161607 5 297 9.7 20.9 0.00 0.00 0.00 48 1017.2
20260506160058 5 309 9.7 29.0 0.00 0.00 0.00 52 1017.2
20260506154613 5 315 12.9 27.4 0.00 0.00 0.00 51 1017.2
20260506153057 5 309 11.3 22.5 0.00 0.00 0.00 54 1017.3
20260506151558 5 287 8.0 17.7 0.00 0.00 0.00 57 1017.2
20260506150059 4 20 8.0 17.7 0.00 0.00 0.00 55 1017.3
20260506144604 4 323 8.0 25.7 0.00 0.00 0.00 57 1017.2
20260506143059 3 318 8.0 17.7 0.00 0.00 0.00 59 1017.2
20260506141604 3 324 6.4 20.9 0.00 0.00 0.00 60 1017.1
20260506140127 3 331 9.7 17.7 0.00 0.00 0.00 58 1017.2
20260506134600 2 319 6.4 11.3 0.00 0.00 0.00 66 1017.1
20260506133110 2 297 4.8 12.9 0.00 0.00 0.00 68 1017.1
20260506131601 2 302 6.4 11.3 0.00 0.00 0.00 70 1017.1
20260506130100 1 0 1.6 6.4 0.00 0.00 0.00 74 1016.9
20260506124601 0 269 0.0 1.6 0.00 0.00 0.00 78 1016.8
20260506123101 0 273 0.0 1.6 0.00 0.00 0.00 79 1016.7
20260506121558 0 281 0.0 1.6 0.00 0.00 0.00 79 1016.5
20260506120104 0 0 0.0 0.0 0.00 0.00 0.00 80 1016.3
20260506114609 -1 0 0.0 0.0 0.00 0.00 0.00 79 1016.1
20260506113102 -1 0 0.0 0.0 0.00 0.00 0.00 80 1015.9
20260506111607 -1 0 0.0 1.6 0.00 0.00 0.00 79 1015.8
20260506110107 -1 0 0.0 0.0 0.00 0.00 0.00 78 1015.7
20260506104601 -1 0 0.0 0.0 0.00 0.00 0.00 77 1015.5
20260506103102 0 0 0.0 0.0 0.00 0.00 0.00 77 1015.5
20260506101559 0 0 0.0 0.0 0.00 0.00 0.00 76 1015.4
20260506100108 0 0 0.0 0.0 0.00 0.00 0.00 76 1015.3
20260506094603 0 0 0.0 1.6 0.00 0.00 0.00 76 1015.2
20260506093104 0 0 0.0 0.0 0.00 0.00 0.00 73 1015.4
20260506091609 1 0 0.0 0.0 0.00 0.00 0.00 71 1015.5
20260506090059 1 0 0.0 3.2 0.00 0.00 0.00 71 1015.7
20260506084603 1 310 0.0 1.6 0.00 0.00 0.00 72 1015.3
20260506083101 1 0 0.0 3.2 0.00 0.00 0.00 72 1015.0
20260506081601 0 0 0.0 1.6 0.00 0.00 0.00 73 1014.8
20260506073101 0 0 0.0 1.6 0.00 0.00 0.00 69 1015.2
20260506071558 0 0 0.0 3.2 0.00 0.00 0.00 70 1015.2
20260506070103 0 0 0.0 1.6 0.00 0.00 0.00 69 1015.0
20260506061613 1 0 0.0 0.0 0.00 0.00 0.00 71 1015.0
20260506044635 0 0 0.0 0.0 0.00 0.00 0.00 68 1014.8
20260506043058 0 0 0.0 0.0 0.00 0.00 0.00 67 1014.6
20260506041557 0 0 0.0 0.0 0.00 0.00 0.00 66 1014.7
20260506040059 0 0 0.0 1.6 0.00 0.00 0.00 63 1014.6
20260506034556 1 328 0.0 1.6 0.00 0.00 0.00 62 1014.6
20260506033056 1 315 0.0 1.6 0.00 0.00 0.00 61 1014.4
20260506031557 1 0 0.0 0.0 0.00 0.00 0.00 61 1014.1
20260506030059 1 0 0.0 0.0 0.00 0.00 0.00 60 1014.2
20260506024600 2 0 0.0 0.0 0.00 0.00 0.00 58 1013.9
20260506023101 2 0 0.0 1.6 0.00 0.00 0.00 55 1013.6
20260506021608 3 0 0.0 4.8 0.00 0.00 0.00 53 1013.5
20260506020056 3 13 1.6 6.4 0.00 0.00 0.00 52 1012.9
20260506014557 4 316 3.2 9.7 0.00 0.00 0.00 50 1012.8
20260506013059 5 326 6.4 14.5 0.00 0.00 0.00 48 1012.7
20260506011559 5 304 4.8 14.5 0.00 0.00 0.00 48 1012.6
20260506010115 5 344 9.7 20.9 0.00 0.00 0.00 47 1012.7
20260506004558 6 13 9.7 20.9 0.00 0.00 0.00 46 1012.5
20260506003059 6 347 9.7 19.3 0.00 0.00 0.00 44 1012.3